Zurück zum Katalog

CZ-6A DEB

AktivSSO
NORAD 55238·DEBRIS·🇨🇳 China

Gestartet Nov 11, 2022 von Taiyuan Satellite Launch Center

Loading…

Nächste Überflüge (nächste 24 Stunden)

TLE

AktuellSource: Space-Track

Epoche: Sep 14, 2026, 12:15 UTC

1 55238U 22151XF  26257.51083971  .00000212  00000-0  12072-3 0  9990
2 55238  98.7829 274.7132 0026189 288.2177  71.6149 14.19868247198887

Verfolge CZ-6A DEB in Echtzeit mit AllMySat

Download on the App Store